This demonstration page uses our WeatherBlox Daily Observations layout. Learn more.

Left ArrowRight Arrow

Hourly Observations for September 19, 2021

Temp ( °F °C ) Dew Point ( °F °C ) Humidity (%) Winds ( mph kmh ) Pressure ( in mb ) Visibility ( mi km ) Precip ( " mm )
12:53 am 00:53 Clear 81 27.2 69 20.6 67 67 ESE 6 9 29.96 1014 10 16 0.00 0.00
1:53 am 01:53 Clear 80 26.7 70 21.1 71 71 ESE 6 9 29.95 1014 10 16 0.00 0.00
2:53 am 02:53 Clear 80 26.7 70 21.1 71 71 SE 8 13 29.94 1014 10 16 0.00 0.00
3:53 am 03:53 Clear 78 25.6 70 21.1 76 76 E 3 6 29.94 1014 10 16 0.00 0.00
4:53 am 04:53 Clear 76 24.4 70 21.1 82 82 ENE 3 6 29.93 1014 10 16 0.00 0.00
5:53 am 05:53 Mostly Clear 76 24.4 70 21.1 82 82 E 3 6 29.94 1014 10 16 0.00 0.00
6:53 am 06:53 Mostly Clear 75 23.9 70 21.1 84 84 Calm 29.93 1014 10 16 0.00 0.00
7:53 am 07:53 Mostly Sunny 76 24.4 71 21.7 85 85 E 3 6 29.94 1014 10 16 0.00 0.00
8:53 am 08:53 Sunny 79 26.1 71 21.7 77 77 Calm 29.95 1014 10 16 0.00 0.00
9:53 am 09:53 Mostly Sunny 82 27.8 72 22.2 72 72 Calm 29.95 1014 10 16 0.00 0.00
10:26 am 10:26 Mostly Cloudy 84 28.9 72 22.2 67 67 VRB 3 6 29.95 1014 10 16 0.00 0.00
10:53 am 10:53 Mostly Cloudy 85 29.4 71 21.7 63 63 Calm 29.96 1015 10 16 0.00 0.00
11:23 am 11:23 Partly Cloudy 86 30 71 21.7 61 61 VRB 3 6 29.95 1014 10 16 0.00 0.00
11:53 am 11:53 Partly Cloudy 87 30.6 71 21.7 59 59 VRB 3 6 29.95 1014 10 16 0.00 0.00
12:53 pm 12:53 Mostly Cloudy 89 31.7 69 20.6 52 52 VRB 7 11 29.92 1013 10 16 0.00 0.00
1:53 pm 13:53 Mostly Cloudy 89 31.7 68 20 50 50 Calm 29.89 1012 10 16 0.00 0.00
2:53 pm 14:53 Partly Cloudy 92 33.3 67 19.4 44 44 undefined N/A 29.85 1011 10 16 0.00 0.00
3:53 pm 15:53 Partly Cloudy 94 34.4 66 18.9 40 40 ENE 8 13 29.82 1010 10 16 0.00 0.00
4:53 pm 16:53 Mostly Sunny 93 33.9 65 18.3 40 40 undefined N/A 29.80 1009 10 16 0.00 0.00
5:53 pm 17:53 Mostly Sunny 93 33.9 64 17.8 38 38 SSE 3 6 29.79 1009 10 16 0.00 0.00
6:53 pm 18:53 Mostly Sunny 92 33.3 63 17.2 38 38 E 5 7 29.79 1009 10 16 0.00 0.00
7:53 pm 19:53 Mostly Clear 89 31.7 64 17.8 43 43 E 5 7 29.80 1009 10 16 0.00 0.00
8:53 pm 20:53 Mostly Clear 87 30.6 67 19.4 51 51 SE 10 17 29.82 1010 10 16 0.00 0.00
9:53 pm 21:53 Clear 85 29.4 68 20 57 57 SE 10 17 29.84 1011 10 16 0.00 0.00
10:53 pm 22:53 Clear 82 27.8 69 20.6 65 65 ESE 8 13 29.84 1010 10 16 0.00 0.00
11:53 pm 23:53 Clear 81 27.2 69 20.6 67 67 SE 8 13 29.83 1010 10 16 0.00 0.00

Powered by AerisWeather